User: anonymous   Login
Location: Unspecified
(47.1700°N, 0.0000°E)
Time: 16:18:43
(UTC+00:00)
Language:

FALCONSAT 3 - Orbit

View from above orbital plane
View from above orbital plane
View from above satellite
View from above satellite

Ground track
Ground track

The orbit data is extracted from the following two-line orbital elements,

1 30776U 07006E   19233.76408872  .00001441  00000-0  41170-4 0  9993
2 30776  35.4357  41.7008 0003360 319.5166  40.5311 15.36374331690549
Epoch (UTC): 21 August 2019 18:20:17
Eccentricity: 0.0003360
inclination: 35.4357°
perigee height: 454 km
apogee height: 459 km
right ascension of ascending node: 41.7008°
argument of perigee: 319.5166°
revolutions per day: 15.36374331
mean anomaly at epoch: 40.5311°
orbit number at epoch: 69054

The dashed part of the orbit path shows where the satellite is in the earth's shadow,  

DLR